Pastebin launched a little side project called VERYVIRAL.com, check it out ;-) Want more features on Pastebin? Sign Up, it's FREE!
Guest

Untitled

By: a guest on Oct 7th, 2013  |  syntax: None  |  size: 6.37 KB  |  views: 38  |  expires: Never
download  |  raw  |  embed  |  report abuse  |  print
Text below is selected. Please press Ctrl+C to copy to your clipboard. (⌘+C on Mac)
  1. C:\ProgramData\Hi-Rez Studios\HiPatchService:
  2. HiPatchService.config                   1260        , 10/6/2013 8:48:28 PM  , 10/6/2013 10:16:36 PM
  3. C:\ProgramData\Hi-Rez Studios\HiPatchService\log:
  4. 2013_10_06_20_48_32Z.log                236160      , 10/6/2013 8:48:32 PM  , 10/6/2013 11:27:35 PM
  5. Exceptions.log                          9607        , 10/6/2013 9:21:18 PM  , 10/6/2013 11:07:57 PM
  6. Support_OS.txt                          2507        , 10/6/2013 11:27:41 PM , 10/6/2013 11:27:47 PM
  7. Support_RegDump.txt                     7466        , 10/6/2013 11:27:52 PM , 10/6/2013 11:27:53 PM
  8. C:\ProgramData\Hi-Rez Studios\HiPatchService\state:
  9. HiPatch.db                              19055       , 10/6/2013 8:48:32 PM  , 10/6/2013 11:27:35 PM
  10. HiPatch.db.bak                          19055       , 10/6/2013 8:48:32 PM  , 10/6/2013 11:27:35 PM
  11. C:\Program Files (x86)\Hi-Rez Studios:
  12. app.config                              120         , 10/6/2013 8:48:20 PM  , 5/15/2013 6:24:48 PM
  13. Awesomium.dll                           21438776    , 10/6/2013 8:48:21 PM  , 2/23/2012 1:02:22 PM
  14. Awesomium.Mono.dll                      171320      , 10/6/2013 8:48:15 PM  , 5/15/2013 6:23:14 PM
  15. Awesomium.Mono.xml                      290666      , 10/6/2013 8:48:21 PM  , 5/15/2013 6:23:14 PM
  16. AwesomiumProcess.exe                    453944      , 10/6/2013 8:48:23 PM  , 2/23/2012 1:02:24 PM
  17. expapply.dll                            197464      , 10/6/2013 8:48:20 PM  , 7/1/2013 7:04:00 PM
  18. expapply64.dll                          231768      , 10/6/2013 8:48:21 PM  , 7/1/2013 7:04:00 PM
  19. HiPatchInstHelper.exe                   11776       , 10/6/2013 8:48:20 PM  , 8/28/2013 5:57:44 PM
  20. HiPatchSelfUpdateWindow.exe             14848       , 10/6/2013 8:48:20 PM  , 8/28/2013 2:20:28 PM
  21. HiPatchService.config                   96          , 10/6/2013 8:48:32 PM  , 10/6/2013 8:48:32 PM
  22. HiPatchService.exe                      9216        , 10/6/2013 8:48:20 PM  , 8/28/2013 5:57:44 PM
  23. HirezGameNotifier.exe                   1112064     , 10/6/2013 8:48:20 PM  , 8/28/2013 5:57:46 PM
  24. HiRezGamesDiagAndSupport.exe            888832      , 10/6/2013 8:48:20 PM  , 8/28/2013 5:57:44 PM
  25. HiRezLauncherControls.dll               33792       , 10/6/2013 8:48:20 PM  , 8/28/2013 2:20:28 PM
  26. HiRezLauncherUI.exe                     855552      , 10/6/2013 8:48:16 PM  , 8/28/2013 6:01:36 PM
  27. HirezUtils.dll                          107008      , 10/6/2013 8:48:20 PM  , 8/28/2013 2:20:26 PM
  28. ICSharpCode.SharpZipLib.dll             200704      , 10/6/2013 8:48:15 PM  , 5/15/2013 6:24:48 PM
  29. icudt42.dll                             10947384    , 10/6/2013 8:48:23 PM  , 2/23/2012 3:45:08 PM
  30. NPSWF32.dll                             14586808    , 9/2/2013 3:15:02 PM   , 11/8/2012 12:47:08 PM
  31. PatcherData.dll                         33792       , 10/6/2013 8:48:20 PM  , 8/28/2013 2:20:28 PM
  32. PatcherEngine.dll                       542720      , 10/6/2013 8:48:17 PM  , 8/28/2013 6:01:36 PM
  33. PatcherMisc.dll                         77312       , 10/6/2013 8:48:19 PM  , 8/28/2013 6:01:36 PM
  34. PortalAccess.dll                        22016       , 10/6/2013 8:48:20 PM  , 8/28/2013 2:20:28 PM
  35. ReduxDecompress.exe                     24064       , 10/6/2013 8:48:25 PM  , 8/28/2013 2:20:30 PM
  36. C:\Program Files (x86)\Hi-Rez Studios\HiRezGames:
  37. C:\Program Files (x86)\Hi-Rez Studios\hireztemp:
  38. SM_0.1.1764.2_new.dfc.temp              4391840536  , 10/6/2013 10:16:43 PM , 10/6/2013 11:26:42 PM
  39. C:\Program Files (x86)\Hi-Rez Studios\locales:
  40. en-US.dll                               110592      , 10/6/2013 8:48:19 PM  , 5/5/2011 9:22:14 PM
  41. C:\Program Files (x86)\Hi-Rez Studios\Skins:
  42. 1.hzskin                                61          , 10/6/2013 8:48:19 PM  , 5/15/2013 6:24:58 PM
  43. 10.hzskin                               63          , 10/6/2013 8:48:19 PM  , 5/15/2013 6:24:58 PM
  44. 11.hzskin                               100         , 10/6/2013 8:48:19 PM  , 5/15/2013 6:24:58 PM
  45. 12.hzskin                               90          , 10/6/2013 8:48:19 PM  , 5/15/2013 6:24:58 PM
  46. 16.hzskin                               59          , 10/6/2013 8:48:19 PM  , 5/15/2013 6:24:58 PM
  47. 16_001.jpg                              98526       , 10/6/2013 8:48:19 PM  , 8/14/2013 11:20:38 AM
  48. 16_001_new.jpg                          77593       , 10/6/2013 8:48:19 PM  , 5/15/2013 6:24:58 PM
  49. 17.hzskin                               32          , 10/6/2013 8:48:19 PM  , 5/15/2013 6:24:58 PM
  50. 18.hzskin                               51          , 10/6/2013 8:48:19 PM  , 5/15/2013 6:24:58 PM
  51. 19.hzskin                               61          , 10/6/2013 8:48:19 PM  , 5/15/2013 6:24:58 PM
  52. 1_001.png                               510967      , 10/6/2013 8:48:19 PM  , 5/15/2013 6:24:58 PM
  53. 1_001_new.jpg                           71817       , 10/6/2013 8:48:19 PM  , 5/15/2013 6:24:58 PM
  54. 1_002.png                               543386      , 10/6/2013 8:48:19 PM  , 5/15/2013 6:24:58 PM
  55. 1_003.png                               502285      , 10/6/2013 8:48:20 PM  , 5/15/2013 6:25:00 PM
  56. 20.hzskin                               114         , 10/6/2013 8:48:20 PM  , 5/15/2013 6:25:00 PM
  57. 3.hzskin                                94          , 10/6/2013 8:48:20 PM  , 5/15/2013 6:25:00 PM
  58. 9.hzskin                                97          , 10/6/2013 8:48:20 PM  , 5/15/2013 6:25:00 PM
  59. 9_001.png                               652854      , 10/6/2013 8:48:20 PM  , 5/15/2013 6:25:00 PM
  60. 9_001_new.jpg                           74378       , 10/6/2013 8:48:20 PM  , 5/15/2013 6:25:00 PM
  61. 9_003.png                               579776      , 10/6/2013 8:48:20 PM  , 5/15/2013 6:25:00 PM
  62. 9_004.png                               596267      , 10/6/2013 8:48:20 PM  , 5/15/2013 6:25:00 PM
  63. HiRezIcon.ico                           16958       , 10/6/2013 8:48:20 PM  , 5/15/2013 6:25:00 PM
  64. Icon100.ico                             3262        , 10/6/2013 8:48:20 PM  , 5/15/2013 6:25:00 PM
  65. Icon200.ico                             9662        , 10/6/2013 8:48:20 PM  , 5/15/2013 6:25:00 PM
  66. Icon300.ico                             16958       , 10/6/2013 8:48:20 PM  , 5/15/2013 6:25:00 PM
  67. C:\Program Files (x86)\Steam\steamapps\common\global agenda:
  68. **DOES NOT EXIST**
  69. C:\Program Files\Steam\steamapps\common\global agenda:
  70. **DOES NOT EXIST**
  71. C:\Program Files (x86)\Steam\steamapps\common\tribes ascend:
  72. **DOES NOT EXIST**
  73. C:\Program Files\Steam\steamapps\common\tribes ascend:
  74. **DOES NOT EXIST**
clone this paste RAW Paste Data